[[{"header":{"parameterUnit":"m.s-1","parameterCategory":1,"la1":30.2991,"la2":30.254,"lo1":-89.0895,"lo2":-89.0444,"dy":0.0017,"dx":0.0017,"nx":28,"ny":28,"refTime":"2023-11-08T03:00:00:Z","depth":0,"parameterNumber":2,"parameterNumberName":"U-component_of_WINDS"},"data":[0,0,0,0,0,0,0,0,0,0,0,0,0,0,0,0,0,0,0,0,0,0,0,0,0,0,0,0,0,0,0,0,0,0,0,0,0,0,0,0,0,0,0,0,0,0,0,0,0,0,0,0,0,0,0,0,0,0,-0.9517,-0.9517,0,-0.9514,-0.9514,-0.9514,-0.9493,-0.9492,-0.9492,-0.9491,-0.9489,-0.9489,-0.949,0,0,0,0,0,0,0,0,0,0,0,0,0,-0.9508,-0.9508,-0.9517,-0.9517,-0.9517,-0.9514,-0.9514,-0.9514,-0.9493,-0.9492,-0.9491,-0.9491,-0.9489,-0.9489,-0.949,0,0,0,0,0,0,0,0,0,0,0,0,0,-0.9509,-0.9508,-0.9517,-0.9506,-0.9505,-0.9514,-0.9514,-0.9514,-0.9493,-0.9492,-0.9491,-0.9491,-0.9489,-0.9489,-0.949,-0.9509,0,0,-0.9492,-0.9492,0,0,0,0,0,0,0,0,-0.9509,-0.9509,-0.9508,-0.9507,-0.9506,-0.9503,-0.951,-0.9512,-0.9493,-0.9498,-0.9491,-0.949,-0.9494,-0.9494,-0.9495,-0.9509,-0.9509,-0.9492,-0.9492,-0.9492,-0.9493,0,0,0,0,0,0,0,-0.9509,-0.951,-0.9516,-0.9508,-0.9507,-0.9502,-0.9502,-0.951,-0.95,-0.9497,-0.9496,-0.9495,-0.9494,-0.9495,-0.9495,-0.9509,-0.9492,-0.9492,-0.9493,-0.9493,-0.954,-0.9541,0,0,0,0,0,0,-0.951,-0.951,-0.9516,-0.9516,-0.9506,-0.9503,-0.9502,-0.9505,-0.95,-0.9499,-0.9496,-0.9494,-0.9494,-0.9494,-0.9495,-0.9518,-0.9492,-0.9493,-0.9493,-0.954,-0.9541,-0.9542,0,0,0,0,0,0,-0.951,-0.9511,-0.9516,-0.9512,-0.9513,-0.9504,-0.9507,-0.9505,-0.9506,-0.9499,-0.9498,-0.9499,-0.9494,-0.9494,-0.9506,-0.9518,-0.9493,-0.9494,-0.9539,-0.954,-0.9541,-0.9565,0,0,0,0,0,0,-0.951,-0.9511,-0.9518,-0.9513,-0.9513,-0.9527,-0.9508,-0.9505,-0.9507,-0.9505,-0.9502,-0.95,-0.9493,-0.9505,-0.9507,-0.9518,-0.9494,-0.9537,-0.9539,-0.9541,-0.9563,-0.9567,-0.957,0,0,0,0,0,-0.951,-0.9524,-0.9518,-0.9519,-0.9521,-0.9527,-0.9528,-0.9518,-0.9508,-0.9515,-0.9511,-0.9501,-0.9517,-0.9507,-0.9508,-0.952,-0.9537,-0.9539,-0.9541,-0.9561,-0.9566,-0.957,0,0,0,0,0,0,-0.9531,-0.9523,-0.9516,-0.953,-0.9529,-0.9524,-0.9532,-0.9523,-0.9526,-0.9524,-0.9513,-0.9512,-0.9526,-0.9525,-0.9514,-0.954,-0.9525,-0.9527,-0.954,-0.9545,-0.9548,-0.9548,-0.9495,0,0,0,0,0,-0.9537,-0.9542,-0.9536,-0.9548,-0.9549,-0.9541,-0.9543,-0.9536,-0.9535,-0.9535,-0.9532,-0.9532,-0.9537,-0.9541,-0.9545,-0.9563,-0.9563,-0.9572,-0.9576,-0.9579,-0.9581,-0.9591,-0.9596,-0.9548,-0.9548,-0.9548,0,0,-0.955,-0.9547,-0.955,-0.9553,-0.9551,-0.9558,-0.954,-0.9548,-0.9553,-0.9536,-0.9547,-0.9545,-0.9545,-0.956,-0.9567,-0.9559,-0.9594,-0.9581,-0.9584,-0.9584,-0.9594,-0.9598,-0.9602,-0.9549,-0.9549,-0.9549,0,0,-0.9577,-0.9574,-0.9585,-0.9585,-0.9583,-0.9578,-0.9581,-0.9577,-0.9575,-0.9586,-0.9574,-0.9581,-0.959,-0.959,-0.9592,-0.9621,-0.9612,-0.9623,-0.9642,-0.9652,-0.9656,-0.9659,-0.967,-0.9674,-0.9625,-0.9625,-0.9625,0,-0.9593,-0.9601,-0.9592,-0.96,-0.9602,-0.9588,-0.9599,-0.9599,-0.96,-0.9602,-0.9593,-0.9605,-0.9604,-0.962,-0.9627,-0.9629,-0.9632,-0.9623,-0.9656,-0.9659,-0.9662,-0.9673,-0.9677,-0.9627,-0.9627,-0.9626,-0.9626,0,-0.9622,-0.9628,-0.9637,-0.9638,-0.9641,-0.9651,-0.9643,-0.9648,-0.9641,-0.9638,-0.965,-0.9648,-0.9653,-0.9656,-0.965,-0.9672,-0.9667,-0.9658,-0.9642,-0.9668,-0.9678,-0.9682,-0.9629,-0.9628,-0.9628,-0.9627,0,0,-0.966,-0.9657,-0.966,-0.9661,-0.9659,-0.9665,-0.9675,-0.9679,-0.9683,-0.9685,-0.9694,-0.9703,-0.9694,-0.9696,-0.969,-0.9699,-0.9724,-0.9688,-0.9688,-0.9695,-0.9749,-0.9756,-0.9761,-0.9718,-0.9719,-0.9719,-0.9749,0,-0.9686,-0.9702,-0.9695,-0.9712,-0.9719,-0.9706,-0.9715,-0.9716,-0.9713,-0.9719,-0.9717,-0.9723,-0.9711,-0.9713,-0.9721,-0.9719,-0.9734,-0.9717,-0.9727,-0.9727,-0.9727,-0.9766,-0.9773,-0.9802,-0.9753,-0.9754,-0.9754,0,-0.9718,-0.9721,-0.9739,-0.9738,-0.974,-0.9748,-0.9752,-0.9758,-0.9759,-0.9757,-0.976,-0.9752,-0.9763,-0.9749,-0.9765,-0.9753,-0.9757,-0.9757,-0.9758,-0.9758,-0.9742,-0.9768,-0.981,-0.9815,-0.976,-0.976,-0.9759,0,-0.9745,-0.9754,-0.9766,-0.9767,-0.9765,-0.9772,-0.9771,-0.9772,-0.9775,-0.978,-0.9782,-0.9788,-0.9791,-0.9796,-0.9791,-0.978,-0.9808,-0.9793,-0.9807,-0.9807,-0.9813,-0.9812,-0.9857,-0.9815,-0.9815,-0.9815,-0.9815,0,-0.9775,-0.9787,-0.9778,-0.9785,-0.9799,-0.9791,-0.9804,-0.9803,-0.9804,-0.9812,-0.9802,-0.981,-0.9802,-0.981,-0.9806,-0.9821,-0.9822,-0.9821,-0.982,-0.9822,-0.9822,-0.9824,-0.9822,-0.9816,-0.9816,-0.9816,-0.9816,0,-0.9807,-0.9802,-0.9814,-0.9812,-0.9812,-0.9822,-0.9821,-0.9828,-0.9825,-0.9836,-0.9838,-0.9834,-0.9842,-0.9838,-0.9847,-0.9845,-0.9864,-0.986,-0.9863,-0.9862,-0.9877,-0.9876,-0.9924,-0.993,-0.9885,-0.9885,-0.9886,0,-0.9826,-0.9835,-0.9834,-0.9838,-0.9839,-0.9846,-0.985,-0.9843,-0.9848,-0.9851,-0.9858,-0.9866,-0.9872,-0.9887,-0.9885,-0.9893,-0.9889,-0.9906,-0.989,-0.9892,-0.989,-0.989,-0.9891,-0.9909,-0.9909,-0.991,-0.991,0,-0.9861,-0.9858,-0.9864,-0.9869,-0.9874,-0.9877,-0.988,-0.9885,-0.9878,-0.9884,-0.9893,-0.9897,-0.9907,-0.9916,-0.9922,-0.9923,-0.9916,-0.9915,-0.9919,-0.9921,-0.9923,-0.9923,-0.9872,-0.9914,-0.9913,-0.9913,-0.9913,-0.9913,-0.9888,-0.9895,-0.9896,-0.9903,-0.9905,-0.9908,-0.9916,-0.9914,-0.9921,-0.9928,-0.9924,-0.9934,-0.9937,-0.9946,-0.9948,-0.9957,-0.9951,-0.9956,-0.9957,-0.9959,-0.9961,-0.9921,-0.9958,-0.9958,-0.9958,-0.9958,-0.9958,0,-0.9923,-0.9923,-0.9929,-0.9934,-0.994,-0.9932,-0.9936,-0.9942,-0.9951,-0.9954,-0.996,-0.9971,-0.998,-0.9979,-0.9988,-0.9995,-0.9992,-0.9998,-0.9997,-0.9998,-0.9966,-0.9962,-1.0,-1.0,-1.0,-1.0,-1.0,-1.0,-0.9941,-0.9954,-0.9952,-0.9966,-0.9967,-0.9977,-0.998,-0.9983,-0.9986,-0.9998,-1.0005,-1.0005,-1.0007,-1.0016,-1.0024,-1.0024,-1.0028,-1.0035,-1.0034,-1.0004,-1.0,-0.9996,-0.9992,-1.0036,-1.0036,-1.0065,-1.0065,-1.0065]},{"header":{"parameterUnit":"m.s-1","parameterCategory":1,"la1":30.2991,"la2":30.254,"lo1":-89.0895,"lo2":-89.0444,"dy":0.0017,"dx":0.0017,"nx":28,"ny":28,"refTime":"2023-11-08T03:00:00:Z","depth":0,"parameterNumber":3,"parameterNumberName":"V-component_of_WINDS"},"data":[0,0,0,0,0,0,0,0,0,0,0,0,0,0,0,0,0,0,0,0,0,0,0,0,0,0,0,0,0,0,0,0,0,0,0,0,0,0,0,0,0,0,0,0,0,0,0,0,0,0,0,0,0,0,0,0,0,0,1.4187,1.4186,0,1.4076,1.4074,1.4073,1.4041,1.4041,1.4042,1.4042,1.3923,1.3919,1.3916,0,0,0,0,0,0,0,0,0,0,0,0,0,1.4368,1.4364,1.4188,1.4186,1.4185,1.4076,1.4074,1.4073,1.4041,1.4041,1.4042,1.4043,1.3924,1.392,1.3915,0,0,0,0,0,0,0,0,0,0,0,0,0,1.4276,1.4363,1.4188,1.4156,1.4152,1.4076,1.4074,1.4072,1.404,1.4041,1.4042,1.4043,1.3926,1.392,1.3915,1.3862,0,0,1.3898,1.3895,0,0,0,0,0,0,0,0,1.4281,1.4269,1.4162,1.4158,1.4153,1.4073,1.4094,1.4001,1.404,1.4083,1.4042,1.4044,1.3972,1.3963,1.3939,1.3856,1.3851,1.3897,1.3894,1.3891,1.389,0,0,0,0,0,0,0,1.4287,1.4274,1.4143,1.416,1.4155,1.4145,1.4133,1.4076,1.4023,1.4079,1.4076,1.4064,1.397,1.3945,1.3936,1.3849,1.3897,1.3892,1.3889,1.3887,1.3714,1.3713,0,0,0,0,0,0,1.43,1.4279,1.4147,1.414,1.4221,1.4141,1.4128,1.4098,1.4024,1.4014,1.4063,1.4063,1.3954,1.3943,1.3932,1.3864,1.3891,1.3886,1.3883,1.3715,1.3714,1.3713,0,0,0,0,0,0,1.4304,1.4289,1.4151,1.4209,1.4191,1.4137,1.4104,1.4095,1.407,1.4012,1.4002,1.4048,1.3954,1.394,1.3879,1.3859,1.3884,1.3878,1.3717,1.3715,1.3713,1.3727,0,0,0,0,0,0,1.4309,1.429,1.4271,1.4209,1.4188,1.4102,1.4103,1.4092,1.4061,1.406,1.3995,1.3985,1.3954,1.3888,1.3874,1.3852,1.3874,1.3718,1.3716,1.3714,1.3728,1.3726,1.3724,0,0,0,0,0,1.4316,1.4279,1.427,1.4254,1.4163,1.4101,1.4089,1.4055,1.406,1.4039,1.4001,1.3987,1.3864,1.3882,1.3866,1.3842,1.372,1.3717,1.3714,1.3729,1.3726,1.3724,0,0,0,0,0,0,1.4338,1.427,1.426,1.4202,1.4157,1.4096,1.4068,1.4054,1.4006,1.4006,1.3965,1.3951,1.3892,1.3861,1.3882,1.3785,1.3791,1.3785,1.3808,1.3805,1.3803,1.3811,1.3869,0,0,0,0,0,1.4337,1.4294,1.4236,1.419,1.4169,1.4122,1.4094,1.4072,1.4024,1.4005,1.3963,1.3915,1.3865,1.3834,1.3785,1.3724,1.3708,1.3699,1.3697,1.3696,1.3691,1.3654,1.3649,1.3704,1.3704,1.3704,0,0,1.4332,1.429,1.4265,1.4193,1.4157,1.4111,1.4107,1.4059,1.4025,1.3997,1.3937,1.3905,1.3849,1.3787,1.3758,1.3759,1.3672,1.3692,1.3692,1.3687,1.3651,1.3646,1.3641,1.3702,1.3702,1.3703,0,0,1.4301,1.4266,1.4223,1.4186,1.4131,1.4101,1.409,1.403,1.4008,1.3948,1.3926,1.3883,1.3799,1.376,1.3729,1.3682,1.3666,1.3667,1.3656,1.3621,1.3616,1.3612,1.3594,1.3588,1.3662,1.3662,1.3662,0,1.4302,1.4235,1.4202,1.4156,1.4124,1.4098,1.4053,1.4019,1.395,1.3928,1.393,1.3824,1.3784,1.3712,1.3701,1.3677,1.3663,1.3674,1.362,1.3616,1.3611,1.3593,1.3587,1.3663,1.3662,1.3662,1.3662,0,1.4239,1.4192,1.4164,1.4099,1.4064,1.4019,1.3977,1.3945,1.3926,1.3894,1.3832,1.3784,1.3725,1.3706,1.3686,1.3631,1.3633,1.3629,1.3633,1.3607,1.3589,1.3582,1.3663,1.3663,1.3663,1.3663,0,0,1.4218,1.4136,1.4126,1.4096,1.4033,1.3995,1.3948,1.3891,1.3863,1.3817,1.3774,1.3704,1.3699,1.3663,1.3639,1.3609,1.3573,1.3607,1.3605,1.3601,1.3506,1.3509,1.3502,1.3563,1.3561,1.356,1.3511,0,1.4178,1.4094,1.4063,1.3993,1.3948,1.3923,1.3881,1.3837,1.3806,1.3762,1.3727,1.3677,1.3675,1.3654,1.3623,1.3584,1.3553,1.3587,1.3521,1.3519,1.3535,1.3493,1.3496,1.3452,1.3504,1.3503,1.3502,0,1.412,1.4074,1.4001,1.3942,1.3922,1.3885,1.383,1.3789,1.3737,1.3717,1.3677,1.3655,1.3602,1.3611,1.3536,1.356,1.3531,1.3508,1.3506,1.3497,1.3508,1.3482,1.3437,1.343,1.3491,1.3492,1.3492,0,1.4111,1.403,1.3976,1.3951,1.3881,1.3856,1.3825,1.3775,1.3742,1.3693,1.3671,1.3616,1.3586,1.3543,1.3505,1.3516,1.3434,1.344,1.3413,1.3414,1.3396,1.3398,1.3345,1.338,1.338,1.338,1.3381,0,1.4069,1.4025,1.397,1.3937,1.3885,1.3848,1.3798,1.3765,1.3721,1.3678,1.3653,1.3613,1.3567,1.3521,1.3491,1.3433,1.342,1.34,1.3393,1.3402,1.3404,1.3381,1.3383,1.3379,1.3379,1.3379,1.338,0,1.405,1.4012,1.395,1.389,1.3873,1.3838,1.3785,1.375,1.3718,1.3665,1.365,1.3599,1.3544,1.3503,1.3431,1.341,1.3348,1.3341,1.3366,1.3362,1.3337,1.3339,1.3267,1.3254,1.3299,1.3299,1.3299,0,1.4025,1.399,1.3926,1.3897,1.3867,1.382,1.3787,1.3749,1.3715,1.3653,1.3625,1.3568,1.352,1.3432,1.3388,1.3332,1.3322,1.3301,1.3314,1.3324,1.332,1.3322,1.3318,1.3298,1.3298,1.3298,1.3298,0,1.3984,1.3967,1.3921,1.3868,1.3829,1.3785,1.3741,1.3718,1.3671,1.3634,1.3578,1.3541,1.3467,1.341,1.335,1.3317,1.3298,1.3294,1.3285,1.3293,1.3309,1.3298,1.3359,1.3296,1.3296,1.3296,1.3296,1.3296,1.396,1.3928,1.3877,1.3826,1.3789,1.3748,1.3712,1.3675,1.3628,1.3566,1.3546,1.3487,1.3435,1.3353,1.3319,1.3271,1.3271,1.3258,1.3254,1.3251,1.3251,1.3318,1.326,1.326,1.326,1.326,1.326,0,1.3917,1.3883,1.3837,1.3776,1.3735,1.3724,1.3673,1.3639,1.3588,1.3542,1.3496,1.343,1.3374,1.3326,1.3267,1.3238,1.3229,1.3224,1.3225,1.3217,1.3255,1.3268,1.3233,1.3233,1.3233,1.3233,1.3233,1.3233,1.3889,1.3833,1.381,1.3734,1.37,1.3643,1.3615,1.3576,1.3539,1.3467,1.3422,1.3391,1.3342,1.328,1.3228,1.3215,1.3194,1.3192,1.3176,1.3212,1.3215,1.3218,1.323,1.3188,1.3188,1.3143,1.3142,1.3142]}]]